Regional Weather Roundup
Issued by NWS

Home | Current Version | Previous Version | Text Only | Print | Product List | Glossary Off
Versions: 1 2 3 4 5 6 7 8 9 10 11 12 13 14 15 16 17 18 19 20 21 22 23 24 25 26 27 28 29 30 31 32 33 34 35 36 37 38 39 40 41 42 43 44 45 46 47 48 49 50

492
ASUS44 KLIX 021201
RWRLA
LOUISIANA WEATHER ROUNDUP
NATIONAL WEATHER SERVICE NEW ORLEANS LA
600 AM CST MON MAR 02 2015

NOTE: "FAIR" INDICATES FEW OR NO CLOUDS BELOW 12,000 FEET WITH NO
      SIGNIFICANT WEATHER AND/OR OBSTRUCTIONS TO VISIBILITY.
      SKY/WX - SKY CONDITION AND SIGNIFICANT WEATHER.
      TMP - AIR TEMPERATURE.    DP   - DEWPOINT TEMPERATURE.
      RH  - RELATIVE HUMIDITY.  PRES - PRESSURE.
      HX  - HEAT INDEX.         WCI  - WIND CHILL INDEX.

*  THESE STATIONS ARE NOT NWS OR FAA STATIONS AND ARE NOT UNDER
   NWS QUALITY CONTROL.

LAZ040-048-061>063-065-066-069-021300-
SOUTHEAST LOUISIANA

CITY           SKY/WX    TMP DP  RH WIND       PRES   REMARKS
N.O. AUDUBON     N/A     61  61 100 MISG        N/A
6HR MIN TEMP:  58; 6HR MAX TEMP:  61; 6HR PCP:  0.29;

N.O. INTL ARPT CLOUDY    61  58  90 E5        30.25S
6HR MIN TEMP:  59; 6HR MAX TEMP:  61; 6HR PCP:  0.99;

N.O. LAKEFRONT FOG       59  56  89 E9        30.26S VSB 1
6HR MIN TEMP:  57; 6HR MAX TEMP:  61; 6HR PCP:  1.31;

SLIDELL        LGT RAIN  61  60  97 SE6       30.25S
6HR MIN TEMP:  60; 6HR MAX TEMP:  61; 6HR PCP:  1.00;

BATON ROUGE    CLOUDY    60  60 100 E5        30.24S
6HR MIN TEMP:  60; 6HR MAX TEMP:  62; 6HR PCP:  0.25;

BOOTHVILLE     FOG       64  64 100 E5        30.26R VSB 1/4
6HR MIN TEMP:  58; 6HR MAX TEMP:  64;

BELLE CHASSE   CLOUDY    62  59  90 E5        30.25S FOG
6HR MIN TEMP:  57; 6HR MAX TEMP:  62;

BOGALUSA*        N/A     62  59  91 S3        30.27S
6HR MIN TEMP:  61; 6HR MAX TEMP:  62; 6HR PCP:  0.03;

GALLIANO*      CLOUDY    53  52  98 CALM      30.25S
6HR MIN TEMP:  53; 6HR MAX TEMP:  57; 6HR PCP:  0.15;

NEW ROADS*     RAIN      61  60  97 E3        30.24S
6HR MIN TEMP:  60; 6HR MAX TEMP:  62; 6HR PCP:  0.32;

GONZALES*      NOT AVBL
HAMMOND*       NOT AVBL
HOUMA*         CLOUDY    61  61 100 MISG      30.24S
PORT FOURCHON* FOG       63  61  94 NE3       30.28R VSB 1/2

$$

LAZ041-044-053-054-021300-
SOUTHWEST LOUISIANA

CITY           SKY/WX    TMP DP  RH WIND       PRES   REMARKS
LAKE CHARLES   CLOUDY    63  62  97 NE5       30.22R FOG
6HR MIN TEMP:  63; 6HR MAX TEMP:  63; 6HR PCP:  0.21;

LAFAYETTE      FOG       62  62 100 VRB3      30.23R VSB 1
6HR MIN TEMP:  62; 6HR MAX TEMP:  64; 6HR PCP:  0.05;

PATTERSON      CLOUDY    61  59  94 E6        30.24S
6HR MIN TEMP:  61; 6HR MAX TEMP:  64;

SALT POINT       N/A     62  62 100 VRB3      30.21R
6HR MIN TEMP:  62; 6HR MAX TEMP:  67;

NEW IBERIA     FOG       63  62  97 SE6       30.23R VSB 1/2
6HR MIN TEMP:  63; 6HR MAX TEMP:  65; 6HR PCP:  0.01;

CHENAULT AIRPK NOT AVBL

$$

LAZ027-028-021300-
CENTRAL LOUISIANA

CITY           SKY/WX    TMP DP  RH WIND       PRES   REMARKS
FORT POLK      FOG       47  47  99 NE7       30.25R VSB 1
6HR MIN TEMP:  47; 6HR MAX TEMP:  51; 6HR PCP:  0.03;

ALEXANDRIA INT CLOUDY    46  46 100 N5        30.27R FOG
6HR MIN TEMP:  46; 6HR MAX TEMP:  50;

ALEXANDRIA     CLOUDY    46  46 100 VRB5      30.27S
6HR MIN TEMP:  46; 6HR MAX TEMP:  50; 6HR PCP: TRACE;


$$

LAZ001-002-021300-
NORTHWEST LOUISIANA

CITY           SKY/WX    TMP DP  RH WIND       PRES   REMARKS
SHREVEPORT     DRIZZLE   43  42  97 NE9       30.32R FOG
6HR MIN TEMP:  43; 6HR MAX TEMP:  44; 6HR PCP:  0.05;

BARKSDALE AFB  CLOUDY    42  42 100 N8        30.33R
6HR MIN TEMP:  42; 6HR MAX TEMP:  43; 6HR PCP:  0.07;

DTN SHREVEPORT CLOUDY    42  39  89 NE6       30.33R FOG
6HR MIN TEMP:  41; 6HR MAX TEMP:  43; 6HR PCP:  0.06;


$$

LAZ014-016-021300-
NORTHEAST LOUISIANA

CITY           SKY/WX    TMP DP  RH WIND       PRES   REMARKS
MONROE         CLOUDY    42  41  96 NE13      30.35R
6HR MIN TEMP:  42; 6HR MAX TEMP:  45; 6HR PCP:  0.02;

TALLULAH       CLOUDY    43  42  97 N13       30.32S FOG
6HR MIN TEMP:  43; 6HR MAX TEMP:  47; 6HR PCP: TRACE;


$$




USA.gov is the U.S. government's official web portal to all federal, state and local government web resources and services.